Simultaneous Nadir Overpasses (SNOs) Predictions

Prediction of SNOs between AQUA and METOP-A Satellite Orbit:

Table of predicted SNOs for the next 14.0 days since TLE Epoch: 2/11/2017
Index Date (AQUA) Time (AQUA) Lat,Lon (AQUA) SZA (AQUA ) Date (METOP-A) Time (METOP-A) Lat,Lon (METOP-A) SZA (METOP-A ) Distance(km) Time Diff (sec)
1 02/13/2017 18:30:03 73.80,-103.29 87.02 02/13/2017 18:29:06 73.78,-103.36 87.02 2.80 57
2 02/13/2017 19:19:30 -73.88, 64.17 92.91 02/13/2017 19:19:45 -73.90, 64.26 92.89 3.41 15
3 02/13/2017 20:09:07 74.41,-129.42 87.67 02/13/2017 20:10:14 74.40,-127.16 87.55 67.65 67
4 02/16/2017 14:04:19 73.79, -36.84 86.04 02/16/2017 14:03:26 73.81, -36.89 86.07 2.03 53
5 02/16/2017 14:53:46 -73.88, 130.62 93.89 02/16/2017 14:54:06 -73.88, 130.62 93.88 0.68 20
6 02/16/2017 15:43:27 74.56, -63.35 86.86 02/16/2017 15:44:32 74.57, -60.30 86.73 90.18 65
7 02/19/2017 09:38:36 73.80, 29.59 85.05 02/19/2017 09:37:47 73.83, 29.57 85.09 3.55 49
8 02/19/2017 10:28:03 -73.87,-162.93 94.89 02/19/2017 10:28:28 -73.86,-163.03 94.90 3.57 25
9 02/22/2017 05:12:53 73.81, 96.01 84.04 02/22/2017 05:12:09 73.80, 95.91 84.05 3.24 44
10 02/22/2017 06:02:20 -73.88, -96.51 95.90 02/22/2017 06:02:49 -73.88, -96.57 95.90 2.00 29
11 02/25/2017 00:47:09 73.82, 162.41 83.01 02/25/2017 00:46:29 73.81, 162.36 83.02 1.93 40
12 02/25/2017 01:36:36 -73.89, -30.09 96.93 02/25/2017 01:37:09 -73.90, -30.11 96.92 1.49 33




NCC Satellite Simultaneous Nadir Overpasses (SNOs) Prediction Service
